Location: La Chapelle
(48.3135°N, 1.3085°W)
Time: 03:36:03
(UTC+00:00)

Cosmos 2219 Rocket - Pass Details

Date: 03 March 2021
Orbit: 826 x 848 km, 71.0° (Epoch: 16 April)

Event Time Altitude Azimuth Distance (km) Brightness Sun altitude
Rises 21:07:03 0° 226° (SW) 3,358 5.5 -32.1°
Reaches altitude 10° 21:09:35 10° 233° (SW) 2,430 4.8 -32.4°
Maximum altitude 21:14:54 45° 306° (NW) 1,118 3.1 -33.2°
Drops below altitude 10° 21:20:18 10° 19° (NNE) 2,455 4.7 -33.9°
Sets 21:22:53 0° 26° (NNE) 3,397 5.4 -34.3°
